www.pogodaiklimat.ru

Погода и климат >> Архив погоды >> Гондурас >> Puerto Lempira


ПОГОДА в Puerto Lempira

  • Прогноз погоды в Puerto Lempira
  • Монитор погоды в Puerto Lempira
  • Климат города

АРХИВ ПОГОДЫ в Puerto Lempira

Время (UTC), дата Ветер
(напр.,м/с)
 
Видим.   Явления Облачность Т
(С)
Тd
(С)
f
(%)
Тe
(С)
Тes
(С)
Комфортность P
(гПа)
Po
(гПа)
Тmin
(С)
Tmax
(С)
R
(мм)
R24
(мм)
S
(см)
12 9.10 Ю 2 20 км мгла 9/1 750 м
[Cu hum Ac trans]
+25.6 +24.8 95 +36 +36 очень
душно
1009.7 1008.1 +24.8 +33.4
15 9.10 Ю 3 20 км мгла {туман} 4/1 750 м
[Cu hum Ac und]
+30.8 +24.9 71 +44 +51 опасность
перегрева
1010.9 1009.4
18 9.10 Ю 2 20 км мгла {туман} 9/1 750 м
[Cu hum Ac und]
+31.8 +25.8 71 +47 +53 опасность
перегрева
1009.9 1008.4 +24.8 +31.8
21 9.10 ЮВ 3 20 км мгла {туман} 9/1 750 м
[Cu hum Ac trans]
+31.2 +25.3 71 +45 +48 опасность
перегрева
1009.1 1007.6
00 10.10 ЮВ 3 20 км мгла {туман} 6/1 1050 м
[Cb calv Ac und]
+28.9 +24.3 76 +40 +40 очень
душно
1007.4 1006.9 +24.8 +34.0
12 10.10 Ю 2 20 км мгла 4/1 540 м
[Sc diur, vesp Ci fib]
+25.3 +24.6 96 +36 +36 очень
душно
1010.5 1009.0 +25.3 +34.0
15 10.10 Ю 4 20 км мгла {туман} 4/3 800 м
[Cu hum Ac und]
+30.3 +25.6 76 +45 +49 опасность
перегрева
1011.1 1009.6
18 10.10 ЮВ 3 20 км мгла {туман} 8/4 800 м
[Cu hum Ac trans]
+33.1 +25.0 63 +47 +53 опасность
перегрева
1010.7 1009.2 +25.3 +33.1
21 10.10 штиль 0 20 км мгла {туман} 9/3 800 м
[Cu hum Ac und Ci fib]
+32.3 +25.9 69 +48 +51 опасность
перегрева
1009.0 1007.5
12 11.10 штиль 0 20 км мгла 3/0
[Ac und]
+24.6 +24.1 97 +34 +34 очень
душно
1011.2 1009.7 +24.2 +34.5
15 11.10 штиль 0 20 км мгла {туман} 4/1 840 м
[Cu hum Ci fib]
+29.6 +25.9 81 +44 +57 опасность
перегрева
1012.4 1010.9
18 11.10 СВ 3 20 км мгла {туман} 5/3 840 м
[Cu med, cong Ci fib]
+31.7 +25.4 69 +46 +57 опасность
перегрева
1011.6 1010.1 +24.2 +31.7
21 11.10 СВ 3 10 км мгла {туман} 5/3 840 м
[Cu med, cong Ci fib]
+30.8 +25.5 73 +45 +49 опасность
перегрева
1009.6 1008.1
00 12.10 СВ 2 20 км мгла {туман} 3/3 840 м
[Cb calv Ci fib]
+28.2 +25.4 85 +41 +41 опасность
перегрева
1010.1 1008.6 +24.2 +32.2
12 12.10 штиль 0 20 км мгла 9/1 900 м
[Cu med, cong Ci fib]
+25.4 +25.0 98 +36 +36 очень
душно
1011.2 1009.7 +24.8 +32.2
15 12.10 штиль 0 20 км мгла {туман} 9/8 900 м
[Cu med, cong Ci fib]
+29.9 +25.6 78 +44 +47 опасность
перегрева
1012.5 1011.0
18 12.10 С 4 20 км мгла {туман} 4/4 840 м
[Cu med, cong Ci fib]
+30.6 +24.8 71 +43 +51 опасность
перегрева
1011.7 1010.2 +24.8 +30.7
21 12.10 СВ 4 20 км мгла {туман} 9/5 840 м
[Cb cap Cs]
+29.2 +24.9 78 +42 +44 опасность
перегрева
1009.2 1007.7
00 13.10 С 3 10 км мгла {туман} 9/4 840 м
[Cu med, cong Cs]
+28.3 +24.4 79 +40 +40 очень
душно
1010.0 1008.5 +24.8 +31.7
03 13.10 С 3 10 км мгла {туман} 9/4 840 м
[Cu med, cong Cs]
+28.3 +24.4 79 +40 +40 очень
душно
1010.0 1008.5 +24.8 +31.7
12 13.10 штиль 0 18 км осадки на расстоянии 9/6 800 м
[Cb cap Ci ing]
+25.2 +24.8 98 +36 +36 очень
душно
1010.9 1009.4 +23.5 +31.7 25
15 13.10 С 3 20 км мгла {туман} 9/4 800 м
[Cu med, cong Ac und]
+28.6 +25.5 83 +42 +44 опасность
перегрева
1012.3 1010.8
18 13.10 С 3 10 км мгла {туман} 9/4 800 м
[Cu med, cong Ac trans]
+30.9 +25.1 71 +44 +49 опасность
перегрева
1011.1 1009.6 +23.5 +30.9
21 13.10 СВ 3 15 км в посл. час морось {туман} 9/5 840 м
[Cb cap Cs]
+28.9 +24.4 77 +41 +43 опасность
перегрева
1009.5 1008.0 0.0
00 14.10 СВ 3 18 км мгла {морось, туман} 9/5 840 м
[Cb cap Cs]
+27.6 +24.8 85 +39 +39 очень
душно
1009.8 1007.3 +23.5 +31.5 0.0
15 14.10 СЗ 2 20 км гроза без осадков {дождь} 10/9 480 м
[Cb cap As op]
+24.9 +24.5 98 +35 +35 очень
душно
1010.5 1011.0 32
21 14.10 штиль 0 20 км мгла {дождь, морось} 9/5 840 м
[Cb cap Cs]
+27.6 +24.9 85 +39 +43 очень
душно
1009.1 1007.6 96
00 15.10 СВ 4 12 км гроза без осадков {дождь} 10/6 300 м
[Cb cap As op]
+25.6 +25.1 97 +37 +37 очень
душно
1009.6 1008.1 +24.5 +28.3 3
15 15.10 штиль 0 18 км осадки на расстоянии {дождь, морось} 9/9 800 м
[Cu med, cong]
+27.4 +25.6 90 +40 +42 очень
душно
1009.8 1008.3 0.7
18 15.10 штиль 0 10 км слабый дождь {морось} 10/8 480 м
[Cb cap As op]
+25.2 +24.8 98 +36 +37 очень
душно
1009.2 1007.7 +24.5 +27.4 16
21 15.10 Ю 3 18 км в посл. час гроза {дождь} 10/8 480 м
[Cb cap As op]
+25.3 +24.7 96 +36 +36 очень
душно
1007.2 1005.7 7

 

Местоположение метеостанции Puerto Lempira (Гондурас): широта 15.22 долгота -83.80 высота над уровнем моря 13 м.

В архиве по умолчанию представлена погода в Puerto Lempira за последнюю неделю. Архивные данные за месяц целиком и за предыдущие месяцы, начиная с января 2011 года, Вы можете получить, выбрав интересующий диапазон дат из раскрывающегося списка и нажав кнопку "Ввод!".


*Определитесь, кто Вы:
робот инопланетянин человек

Внимание! Время в таблицах - всемирное. Для получения местного времени необходимо прибавить поправку, которая в Puerto Lempira равна -6 ч.

Смотрите также архив погоды в соседних городах и на ближайших метеорологических станциях:

Погода в Puerto Cabezas (Никарагуа) (136 км)
Погода в Catacamas (Гондурас) (232 км)
Погода в Trujillo (Гондурас) (241 км)
Погода в Roatan (Гондурас) (315 км)
Погода в La Ceiba (Гондурас) (333 км)
Погода в Jinotega (Никарагуа) (335 км)
Погода в Providencia Isla (Колумбия) (335 км)
Погода в Yoro (Гондурас) (355 км)
Погода в Bluefields (Никарагуа) (358 км)
Погода в San Andres Isla (Колумбия) (370 км)

Пояснения к столбцам:

Ветер - указаны скорость ветра в м/с - средняя за 10 мин, порывы в срок и между сроками (в фигурных скобках) и направление, откуда дует ветер: С - северный, СВ - северо-восточный, В - восточный, ЮВ - юго-восточный, Ю - южный, ЮЗ - юго-западный, З - западный, СЗ - северо-западный.
Видимость - горизонтальная дальность видимости в метрах или километрах. При видимости от 1 до 10 км при отсутствии осадков обычно наблюдается дымка, при ухудшении видимости до 1 км и менее - туман. В сухую погоду видимость может ухудшаться дымом, пылью или мглою.
Явления - указаны атмосферные явления, наблюдавшиеся в срок или в последний час перед сроком; фигурными скобками обозначены явления, наблюдавшиеся между сроками (за 1-3 часа до срока); квадратными скобками обозначены град или гололедные отложения с указанием их диаметра в мм.
Облачность - указаны через наклонную черту общая и нижняя облачность в баллах и высота нижней границы облаков в метрах; квадратными скобками обозначены формы облаков: Ci - перистые, Cs - перисто-слоистые, Cc - перисто-кучевые, Ac - высококучевые, As - высокослоистые, Sc - слоисто-кучевые, Ns - слоисто-дождевые, Cu - кучевые, Cb - кучево-дождевые. Подробнее классификацию облаков см. в Атласе облаков (PDF).
T - Температура воздуха - температура, измеренная на высоте 2 м над землей.
Td - Температура точки росы - температура, при понижении до которой содержащийся в воздухе водяной пар достигнет насыщения.
f - Относительная влажность воздуха - влажноcть воздуха, измеренная на высоте 2 м над землей.
Te - Эффективная температура - температура, которую ощущает одетый по сезону человек в тени. Характеристика душности погоды. При расчете учитывается влияние влажности воздуха и скорости ветра на теплоощущения человека.
Tes - Эффективная температура на солнце - температура, которую ощущает человек, с поправкой на солнечный нагрев. Характеристика знойности погоды. Зависит от высоты солнца над горизонтом, облачности и скорости ветра. Ночью, в пасмурную погоду, а также при ветре 12 м/с и более поправка равна нулю.
P - Атмосферное давление - приведенное к уровню моря атмосферное давление.
Po - Атмосферное давление - измеренное на уровне метеостанции атмосферное давление.
Tmin - Минимальная температура - минимум температуры воздуха на высоте 2 м над землей.
Tmax - Максимальная температура - максимум температуры воздуха на высоте 2 м над землей.
R - Количество осадков - Количество выпавших осадков за период времени, мм. При наведении курсора мыши на число - период времени, за который выпало указанное количество осадков.
R24 - Количество осадков - Количество выпавших осадков за 24 часа, мм.
S - Снежный покров - Высота снежного покрова, см. При наведении курсора мыши на число - состояние снежного покрова и степень покрытия местности в баллах.